Location: Fort McMurray
(56.7330°N, 111.3830°W)
Time: 02:08:26
(UTC-06:00)

OTV 5 (USA 277) - Visible Passes

Search period start: 22 August 2018 00:00
Search period end: 01 September 2018 00:00
Orbit: 314 x 335 km, 54.5° (Epoch: 21 August)

Date Brightness Start Highest point End Pass type
(mag) Time Alt. Az. Time Alt. Az. Time Alt. Az.
22 Aug ? 21:45:14 10° SW 21:47:44 30° SSE 21:50:13 10° E visible
22 Aug ? 23:19:15 10° WSW 23:21:21 41° SW 23:21:21 41° SW visible
23 Aug ? 22:02:01 10° WSW 22:04:40 43° SSE 22:06:40 15° E visible
23 Aug ? 23:36:15 10° W 23:37:42 26° WSW 23:37:42 26° WSW visible
24 Aug ? 22:18:55 10° WSW 22:21:37 52° S 22:22:56 25° ESE visible
24 Aug ? 23:53:17 10° W 23:53:57 15° W 23:53:57 15° W visible
25 Aug ? 22:35:51 10° W 22:38:33 52° S 22:39:07 41° SE visible
26 Aug ? 21:18:27 10° WSW 21:21:09 50° S 21:23:50 10° E visible
26 Aug ? 22:52:46 10° W 22:55:14 41° SSW 22:55:14 41° SSW visible
27 Aug ? 21:35:17 10° W 21:38:00 53° S 21:40:18 13° ESE visible
27 Aug ? 23:09:43 10° W 23:11:18 24° WSW 23:11:18 24° WSW visible
28 Aug ? 21:52:07 10° W 21:54:48 46° S 21:56:20 21° SE visible
28 Aug ? 23:26:48 10° WSW 23:27:20 13° WSW 23:27:20 13° WSW visible
29 Aug ? 22:08:58 10° W 22:11:32 34° SSW 22:12:20 27° SSE visible
30 Aug ? 22:25:53 10° W 22:28:08 23° SSW 22:28:19 22° SSW visible
31 Aug ? 21:08:05 10° W 21:10:42 39° SSW 21:13:18 10° SE visible
31 Aug ? 22:43:07 10° WSW 22:44:18 14° SW 22:44:18 14° SW visible
